Shelbyville, IN

9:47 PM EST on November 22, 2017 (GMT -0500)
Shelbyville Municipal

Weather History for KGEZ - October, 2011

Change the Weather History Date:

Tuesday, October 18, 2011

  Actual Average Record
Temperature  
Mean Temperature 48 °F 53 °F  
Max Temperature 50 °F 65 °F 82 °F (2016)
Min Temperature 45 °F 42 °F 26 °F (2015)
Degree Days  
Heating Degree Days 18 12  
Month to date heating degree days 89 172  
Since 1 July heating degree days 205 257  
Cooling Degree Days 0 0  
Month to date cooling degree days 5 11  
Year to date cooling degree days 1244 910  
Moisture  
Dew Point 43 °F    
Average Humidity 83    
Maximum Humidity 89    
Minimum Humidity 76    
Precipitation  
Precipitation 0.23 in 0.10 in 1.52 in (2004)
Month to date precipitation 0.46 1.88  
Year to date precipitation 41.74 35.33  
Sea Level Pressure  
Sea Level Pressure 29.79 in    
Wind  
Wind Speed 6 mph (North)    
Max Wind Speed 12 mph    
Max Gust Speed 20 mph    
Visibility 9 miles    
Events Rain , Thunderstorm    
T = Trace of Precipitation, MM = Missing Value Source: NWS Daily Summary

Daily Weather History Graph

Daily Weather History Graph

Search for Another Location

Airport or City:

Trip Planner

Search our weather history database for the weather conditions in past years. The results will help you decide how hot, cold, wet, or windy it might be!

Date:

Astronomy

Oct. 18, 2011 Rise Set
Actual Time 7:56 AM EDT 7:00 PM EDT
Civil Twilight 7:28 AM EDT 7:27 PM EDT
Nautical Twilight 6:57 AM EDT 7:58 PM EDT
Astronomical Twilight 6:26 AM EDT 8:29 PM EDT
Moon 11:41 PM EDT (10/18) 1:45 PM EDT (10/18)
Length of Visible Light 11h 58m
Length of Day
11h 03m
Waning Gibbous, 65% of the Moon is Illuminated
Oct 18
Waning Gibbous
Oct 19
Last Quarter
Oct 26
New
Nov 2
First Quarter
Nov 10
Full

Hourly Weather History & Observations

Time (EDT) Temp. Windchill Dew Point Humidity Pressure Visibility Wind Dir Wind Speed Gust Speed Precip Events Conditions
12:53 AM 48.0 °F - 43.0 °F 83% 29.87 in 10.0 mi WNW 5.8 mph - 0.00 in   Overcast
1:53 AM 46.9 °F - 41.0 °F 80% 29.86 in 10.0 mi North 6.9 mph - N/A   Overcast
2:53 AM 46.9 °F - 39.0 °F 74% 29.85 in 10.0 mi NNW 8.1 mph - N/A   Overcast
3:53 AM 46.9 °F - 39.0 °F 74% 29.83 in 10.0 mi Calm Calm - N/A   Overcast
4:53 AM 46.0 °F - 39.9 °F 79% 29.83 in 10.0 mi Calm Calm - N/A   Clear
5:53 AM 45.0 °F - 41.0 °F 86% 29.84 in 10.0 mi Calm Calm - N/A   Overcast
6:53 AM 46.0 °F - 41.0 °F 83% 29.83 in 10.0 mi Calm Calm - 0.01 in Rain Light Rain
8:53 AM 46.0 °F 44.8 °F 41.0 °F 83% 29.81 in 10.0 mi NE 3.5 mph - 0.01 in Rain Light Rain
9:53 AM 46.0 °F 43.9 °F 43.0 °F 89% 29.82 in 10.0 mi North 4.6 mph - 0.00 in Rain Light Rain
10:53 AM 46.9 °F - 43.0 °F 86% 29.82 in 10.0 mi North 6.9 mph - N/A   Overcast
11:33 AM 46.4 °F 42.4 °F 42.8 °F 87% 29.79 in 2.0 mi NNE 8.1 mph - 0.06 in Rain Rain
11:42 AM 46.4 °F 41.9 °F 44.6 °F 93% 29.79 in 6.0 mi NE 9.2 mph - 0.06 in Rain Light Rain
11:53 AM 46.9 °F - 43.0 °F 86% 29.78 in 9.0 mi NNE 10.4 mph - 0.06 in Rain Light Rain
12:03 PM 46.4 °F 41.9 °F 44.6 °F 93% 29.78 in 9.0 mi North 9.2 mph - 0.01 in Rain Light Rain
12:25 PM 46.4 °F 45.2 °F 44.6 °F 93% 29.83 in 10.0 mi Variable 3.5 mph - 0.01 in   Overcast
1:53 PM 48.0 °F - 43.0 °F 83% 29.77 in 10.0 mi North 8.1 mph - 0.02 in   Overcast
2:53 PM 48.9 °F - 42.1 °F 77% 29.74 in 10.0 mi NNE 10.4 mph - N/A   Overcast
3:53 PM 50.0 °F - 44.1 °F 80% 29.73 in 10.0 mi North 8.1 mph - N/A   Overcast
4:53 PM 46.9 °F - 44.1 °F 90% 29.74 in 3.0 mi North 11.5 mph 19.6 mph 0.05 in Rain , Thunderstorm Light Rain
5:12 PM 46.4 °F 41.5 °F 44.6 °F 93% 29.75 in 7.0 mi North 10.4 mph - 0.01 in Rain Rain
5:16 PM 46.4 °F 41.5 °F 44.6 °F 93% 29.74 in 6.0 mi North 10.4 mph - 0.01 in Rain Light Rain
5:53 PM 46.9 °F - 44.1 °F 90% 29.74 in 10.0 mi North 13.8 mph - 0.03 in Rain Light Rain
6:53 PM 46.9 °F - 43.0 °F 86% 29.73 in 10.0 mi North 10.4 mph - 0.00 in   Overcast
7:51 PM 46.4 °F 41.9 °F 41.0 °F 81% 29.73 in 10.0 mi North 9.2 mph - N/A   Overcast
7:53 PM 46.0 °F 40.6 °F 42.1 °F 86% 29.74 in 10.0 mi North 11.5 mph - N/A   Overcast
8:26 PM 46.4 °F 41.1 °F 42.8 °F 87% 29.73 in 10.0 mi North 11.5 mph - N/A   Overcast
8:37 PM 46.4 °F 42.4 °F 42.8 °F 87% 29.73 in 10.0 mi North 8.1 mph - N/A   Overcast